Mountain Home AFB, ID

5:17 AM MST on February 27, 2017 (GMT -0700)
Mountain Home Air Force Base

Weather History for KMUO - August, 2014

Change the Weather History Date:

Friday, August 22, 2014

  Actual Average Record
Temperature  
Mean Temperature 69 °F 73 °F  
Max Temperature 81 °F 90 °F 109 °F (1969)
Min Temperature 57 °F 55 °F 35 °F (1918)
Degree Days  
Heating Degree Days 0 0  
Month to date heating degree days 0 0  
Cooling Degree Days 4 9  
Month to date cooling degree days 247 245  
Growing Degree Days 11 (Base 50)    
Moisture  
Dew Point 45 °F    
Average Humidity 45    
Maximum Humidity 84    
Minimum Humidity 18    
Precipitation  
Precipitation T in 0.00 in 1.55 in (1961)
Month to date precipitation 0.45 0.08  
Sea Level Pressure  
Sea Level Pressure 29.84 in    
Wind  
Wind Speed 13 mph (East)    
Max Wind Speed 18 mph    
Max Gust Speed 24 mph    
Visibility 10 miles    
Events Rain , Thunderstorm    
T = Trace of Precipitation, MM = Missing Value Source: NWS Daily Summary

Daily Weather History Graph

Daily Weather History Graph

Search for Another Location

Airport or City:

Trip Planner

Search our weather history database for the weather conditions in past years. The results will help you decide how hot, cold, wet, or windy it might be!

Date:

Astronomy

Aug. 22, 2014 Rise Set
Actual Time 6:57 AM MDT 8:34 PM MDT
Civil Twilight 6:27 AM MDT 9:04 PM MDT
Nautical Twilight 5:50 AM MDT 9:40 PM MDT
Astronomical Twilight 5:11 AM MDT 10:19 PM MDT
Moon 4:21 AM MDT (8/22) 6:47 PM MDT (8/22)
Length of Visible Light 14h 37m
Length of Day
13h 37m
Waning Crescent, 7% of the Moon is Illuminated
Aug 22
Waning Crescent
Aug 25
New
Sep 2
First Quarter
Sep 8
Full
Sep 15
Last Quarter

Hourly Weather History & Observations

Time (MDT) Temp. Windchill Dew Point Humidity Pressure Visibility Wind Dir Wind Speed Gust Speed Precip Events Conditions
12:58 AM 67.8 °F - 50.9 °F 55% 29.83 in 10.0 mi ESE 12.7 mph - N/A   Clear
1:58 AM 66.0 °F - 52.3 °F 61% 29.83 in 10.0 mi ESE 15.0 mph - N/A   Partly Cloudy
2:58 AM 65.1 °F - 52.0 °F 62% 29.82 in 10.0 mi ESE 16.1 mph - N/A   Partly Cloudy
3:58 AM 65.1 °F - 51.1 °F 60% 29.82 in 10.0 mi ESE 18.4 mph - N/A   Scattered Clouds
5:58 AM 64.2 °F - 50.0 °F 60% 29.81 in 10.0 mi ESE 17.3 mph - N/A   Mostly Cloudy
6:58 AM 63.7 °F - 49.8 °F 61% 29.81 in 10.0 mi ESE 16.1 mph - N/A   Overcast
7:58 AM 64.8 °F - 49.8 °F 58% 29.83 in 10.0 mi ESE 10.4 mph - N/A   Mostly Cloudy
8:58 AM 66.2 °F - 50.7 °F 57% 29.87 in 10.0 mi ESE 9.2 mph - N/A   Overcast
9:58 AM 66.6 °F - 51.6 °F 59% 29.85 in 10.0 mi East 12.7 mph - N/A   Clear
10:58 AM 67.6 °F - 52.3 °F 58% 29.86 in 10.0 mi SE 13.8 mph - N/A   Scattered Clouds
11:58 AM 69.4 °F - 53.6 °F 57% 29.87 in 10.0 mi ESE 6.9 mph - N/A   Scattered Clouds
1:58 PM 74.3 °F - 52.7 °F 47% 29.83 in 10.0 mi Variable 2.3 mph - N/A   Clear
2:58 PM 77.4 °F - 49.6 °F 38% 29.81 in 10.0 mi WNW 8.1 mph - N/A   Partly Cloudy
3:58 PM 79.5 °F - 44.2 °F 29% 29.80 in 10.0 mi NNW 12.7 mph 18.4 mph N/A   Clear
4:34 PM 80.6 °F - 41.0 °F 24% 29.85 in 10.0 mi NNW 10.4 mph 19.6 mph N/A Thunderstorm Mostly Cloudy
4:58 PM 42.8 °F 36.2 °F 38.3 °F 84% 29.78 in 10.0 mi NNW 12.7 mph - N/A Thunderstorm Mostly Cloudy
5:06 PM 78.8 °F - 37.4 °F 23% 29.84 in 10.0 mi North 13.8 mph - N/A Thunderstorm Thunderstorm
5:20 PM 78.8 °F - 33.8 °F 20% 29.84 in 10.0 mi North 15.0 mph - N/A Thunderstorm Mostly Cloudy
5:42 PM 78.8 °F - 32.0 °F 18% 29.86 in 10.0 mi NNW 12.7 mph - N/A Thunderstorm Thunderstorm
5:54 PM 78.8 °F - 32.0 °F 18% 29.86 in 10.0 mi NNW 12.7 mph - N/A Thunderstorm Mostly Cloudy
5:58 PM 77.9 °F - 31.6 °F 19% 29.80 in 10.0 mi NNW 12.7 mph - N/A Thunderstorm Mostly Cloudy
6:17 PM 78.8 °F - 32.0 °F 18% 29.87 in 10.0 mi North 10.4 mph - N/A   Overcast
6:58 PM 74.7 °F - 45.0 °F 35% 29.81 in 10.0 mi SE 8.1 mph - N/A   Overcast
7:58 PM 69.1 °F - 47.7 °F 46% 29.84 in 10.0 mi South 13.8 mph 24.2 mph N/A   Overcast
8:58 PM 67.8 °F - 45.3 °F 44% 29.86 in 10.0 mi South 5.8 mph - 0.00 in Rain Light Rain
9:58 PM 67.5 °F - 45.1 °F 45% 29.88 in 10.0 mi ESE 4.6 mph - 0.00 in   Mostly Cloudy
10:58 PM 61.7 °F - 45.3 °F 55% 29.91 in 10.0 mi SSE 13.8 mph 24.2 mph N/A   Partly Cloudy
11:58 PM 61.9 °F - 43.7 °F 51% 29.92 in 10.0 mi SE 8.1 mph - N/A   Mostly Cloudy